Weather History for Medicine Lodge, KS

Change the Weather History Date:

Thursday, February 7, 2013

  Actual Average Record
Temperature  
Mean Temperature 46 °F 36 °F  
Max Temperature 56 °F 49 °F 76 °F (1926)
Min Temperature 35 °F 24 °F -14 °F (1982)
Degree Days  
Heating Degree Days 19 29  
Month to date heating degree days 166 206  
Since 1 July heating degree days 2604 2983  
Cooling Degree Days 0 0  
Month to date cooling degree days 0 0  
Year to date cooling degree days 0 0  
Moisture  
Dew Point 38 °F    
Average Humidity 69    
Maximum Humidity 100    
Minimum Humidity 38    
Precipitation  
Precipitation 0.04 in 0.03 in 1.03 in (1980)
Month to date precipitation 0.04 0.19  
Year to date precipitation 0.60 0.90  
Snow  
Snow 0.00 in 0.10 in - ()
Month to date snowfall 0.0 0.7  
Since 1 July snowfall 1.0 6.9  
Snow Depth -    
Sea Level Pressure  
Sea Level Pressure 30.00 in    
Wind  
Wind Speed 12 mph (NNE)    
Max Wind Speed 26 mph    
Max Gust Speed 34 mph    
T = Trace of Precipitation, MM = Missing Value Source: NWS Daily Summary

Daily Weather History Graph

Daily Weather History Graph

Search for Another Location

Airport:

Trip Planner

Search our weather history database for the weather conditions in past years. The results will help you decide how hot, cold, wet, or windy it might be!

Date:

Astronomy

Feb. 07, 2013 Rise Set
Actual Time 7:31 AM CST 6:05 PM CST
Civil Twilight 7:04 AM CST 6:32 PM CST
Nautical Twilight 6:33 AM CST 7:03 PM CST
Astronomical Twilight 6:03 AM CST 7:34 PM CST
Moon 5:10 AM CST (2/7) 3:33 PM CST (2/7)
Length of Visible Light 11h 28m
Length of Day
10h 34m
Waning Crescent, 9% of the Moon is Illuminated
Feb 7
Waning Crescent
Feb 10
New
Feb 17
First Quarter
Feb 25
Full
Mar 4
Last Quarter

Hourly Weather History & Observations

Time (CST) Temp. Windchill Dew Point Humidity Pressure Visibility Wind Dir Wind Speed Gust Speed Precip Events Conditions
12:56 AM 54.0 °F - 53.1 °F 97% 29.81 in - SSE 9.2 mph 17.3 mph N/A   Unknown
1:56 AM 54.0 °F - 53.1 °F 97% 29.79 in - SE 8.1 mph - N/A   Unknown
2:56 AM 54.0 °F - 52.0 °F 93% 29.79 in - SE 4.6 mph - N/A   Unknown
3:56 AM 53.1 °F - 53.1 °F 100% 29.80 in - Calm Calm - 0.04 in   Unknown
4:56 AM 53.1 °F - 53.1 °F 100% 29.80 in - ESE 4.6 mph - N/A   Unknown
5:56 AM 52.0 °F - 51.1 °F 97% 29.83 in - North - - N/A   Unknown
6:56 AM 51.1 °F - 50.0 °F 96% 29.85 in - NNE 19.6 mph 26.5 mph N/A   Unknown
7:56 AM 51.1 °F - 48.0 °F 89% 29.92 in - North 10.4 mph - N/A   Unknown
8:56 AM 48.0 °F - 46.0 °F 93% 29.96 in - North 20.7 mph 28.8 mph N/A   Unknown
9:56 AM 43.0 °F 34.2 °F 37.9 °F 82% 30.00 in - North 20.7 mph 31.1 mph N/A   Unknown
10:56 AM 45.0 °F 36.6 °F 36.0 °F 71% 30.04 in - North 21.9 mph 34.5 mph N/A   Unknown
11:56 AM 46.9 °F - 35.1 °F 63% 30.04 in - North 20.7 mph 27.6 mph N/A   Unknown
12:56 PM 48.9 °F - 35.1 °F 59% 30.03 in - North 19.6 mph - N/A   Unknown
1:56 PM 51.1 °F - 33.1 °F 50% 30.04 in - North 21.9 mph 31.1 mph N/A   Unknown
2:56 PM 55.0 °F - 30.0 °F 38% 30.03 in - North 21.9 mph 32.2 mph N/A   Unknown
3:56 PM 55.0 °F - 30.0 °F 38% 30.04 in - North 17.3 mph 28.8 mph N/A   Unknown
4:56 PM 54.0 °F - 28.0 °F 37% 30.07 in - North 16.1 mph 25.3 mph N/A   Unknown
5:56 PM 51.1 °F - 28.0 °F 41% 30.10 in - NNE 11.5 mph - N/A   Unknown
6:56 PM 42.1 °F 39.2 °F 28.0 °F 58% 30.14 in - North 4.6 mph - N/A   Unknown
7:56 PM 42.1 °F 39.2 °F 28.0 °F 58% 30.17 in - NNW 4.6 mph - N/A   Unknown
8:56 PM 36.0 °F 31.1 °F 27.0 °F 70% 30.19 in - North 5.8 mph - N/A   Unknown
9:56 PM 37.9 °F 33.5 °F 28.0 °F 68% 30.21 in - NNE 5.8 mph - N/A   Unknown
10:56 PM 37.0 °F 34.5 °F 28.0 °F 70% 30.22 in - North 3.5 mph - N/A   Unknown
11:56 PM 35.1 °F 30.1 °F 28.0 °F 76% 30.23 in - NNE 5.8 mph - N/A   Unknown